Location: Zagreb
(45.8000°N, 16.0000°E)
Time: 19:40:32
(UTC+02:00)

A-11 Canister half - Pass Details

Date: 11 August 2022
Orbit: 1524 x 1684 km, 47.3° (Epoch: 05 October)

Event Time Altitude Azimuth Distance (km) Brightness Sun altitude
Rises 04:31:38 0° 190° (S) 4,880 - -12.7°
Exits shadow 04:31:53 - 189° (S) 4,811 11.2 -12.6°
Reaches altitude 10° 04:35:33 10° 178° (S) 3,914 10.8 -12.1°
Maximum altitude 04:43:01 24° 129° (SE) 2,959 10.7 -11.1°
Drops below altitude 10° 04:50:32 10° 80° (E) 3,949 12.3 -10.0°
Sets 04:54:28 0° 68° (ENE) 4,934 13.6 -9.5°
